Regional Weather Roundup
Issued by NWS Newport/Morehead, NC

Current Version | Previous Version | Text Only | Print | Product List | Glossary On
Versions: 1 2 3 4 5 6 7 8 9 10 11 12 13 14 15 16 17 18 19 20 21 22 23 24 25 26 27 28 29 30 31 32 33 34 35 36 37 38 39 40 41 42 43 44 45 46 47 48 49 50
000
ASUS42 KMHX 280725
RWRMHX
WEATHER ROUNDUP FOR EASTERN NORTH CAROLINA
NATIONAL WEATHER SERVICE NEWPORT/MOREHEAD CITY NC
300 AM EDT THU MAY 28 2015

NOTE: "FAIR" INDICATES FEW OR NO CLOUDS BELOW 12,000 FEET
WITH NO SIGNIFICANT WEATHER AND/OR OBSTRUCTIONS TO VISIBILITY

NCZ015>017-031-032-045>047-102-103-280800-
NORTH COAST

CITY           SKY/WX    TMP DP  RH WIND       PRES   REMARKS
EDENTON        PTCLDY    70  65  85 S7        30.21F
ELIZABETH CITY PTCLDY    69  65  86 S7        30.21S
KITTY HAWK     MOSUNNY   71  64  78 SW5       30.22S
MANTEO         PTCLDY    71  65  79 SW10      30.22F

$$

NCZ045>047-081-094-103-104-280800-
CENTRAL COAST

CITY           SKY/WX    TMP DP  RH WIND       PRES   REMARKS
FRISCO         PTCLDY    71  61  70 SW5       30.24S
SWANQUARTER      N/A     72 N/A N/A S8G14     30.18S

$$

NCZ095-097-098-100-101-280800-
SOUTHERN COAST

CITY           SKY/WX    TMP DP  RH WIND       PRES   REMARKS
BEAUFORT       CLEAR     65  62  90 CALM      30.23S
CEDAR ISLAND     N/A     70 N/A N/A S3        30.27S
JACKSONVILLE   PTCLDY    69  63  81 S3        30.21F
PINEY ISLAND   SUNNY    N/A N/A N/A S5        30.22F
WILMINGTON     PTCLDY    67  64  90 CALM      30.22F


$$

NCZ011>013-027>030-043-044-078>080-089-090>093-098-280800-
COASTAL PLAIN

CITY           SKY/WX    TMP DP  RH WIND       PRES   REMARKS
AHOSKIE        CLOUDY    69  66  88 S3        30.21F
CLINTON        MOCLDY    69  69  99 CALM      30.21F
ELIZABETHTOWN  PTCLDY    68  68 100 CALM      30.20F
GOLDSBORO      MOCLDY    70  67  90 CALM      30.19F
GREENVILLE     PTCLDY    70  68  94 SW7       30.22F
HAVELOCK       CLEAR     63  60  90 SE3       30.23F
KENANSVILLE    CLOUDY    68  66  93 CALM      30.23F
KINSTON        MOCLDY    69  66  90 S3        30.22F
NEW BERN       CLEAR     64  61  90 CALM      30.23F
RICHLANDS      MOCLDY    64  61  88 CALM      30.22F
ROCKY MOUNT    PTCLDY    69  68  96 S3        30.21F
WASHINGTON     PTCLDY    68  65  88 SW5       30.22F
WHITEVILLE     PTCLDY    67  65  94 CALM      30.20F

$$

AMZ130-135-150-152-154-156-158-170-250-252-270-ANZ085-086-088-633-658-670-280800-
MARINE OBSERVATIONS

STATION/POSITION TIME  TEMP    WIND        PRES    WAVE   SWELL
                       AIR SEA DIR/SP/G            HT/PER HT/PER
                 (UTC) (F)     (DEG/KT/KT) (MB)    (FT/S) (FT/S)
CHESAPEAKE LIGHT 0700   66     200/ 19/ 20 1023.0
64 E VA BEACH    0650   66 64  160/  8/ 10 1023.2    3/ 7   2/ 7
DUCK             0700   72 54  200/ 12/ 14 1022.2
2 E DUCK         0711      58                N/A     2/ 6
OREGON INLET     0700   72 76  170/ 10/ 12 1023.6
13E OREGON INLT  0700      69                N/A     3/ 7
HATTERAS CG      0700   72 75  190/  3/  8 1023.4
DIAMOND BUOY     0650   74 77  170/  8/ 10 1024.0    3/ 7   3/ 7
CAPE LOOKOUT     0700   73     150/  6/  6 1023.3
BEAUFORT LAB     0700   73 75  200/  5/  6 1022.6
27 SE WRIGHTSVLE 0700      76  200/  4/  6   N/A
5 SE WRIGHTSVLE  0608   75 77  190/  8/ 10 1023.5
225 S CAPE HAT   0650   73 74   90/ 12/ 16 1023.0    5/ 8   3/ 8
41 SE CHARLESTON 0650   76 78  100/  8/ 10 1021.8    3/ 8   2/ 8

$$


USA.gov is the U.S. government's official web portal to all federal, state and local government web resources and services.